Volver al catálogo

STARLINK-3992

ActivoComunicacionesVLEO
NORAD 52627·PAYLOAD·🇺🇸 United States

Lanzado May 14, 2022 desde Cape Canaveral Space Force Station

Loading…

Próximos Pases (próximas 24 horas)

TLE

ActualizadoSource: CelesTrak SupGP

Época: Sep 15, 2026, 02:56 UTC

1 52627C 22052AF  26258.12270833  .00016399  00000+0  46915-3 0  2585
2 52627  53.1564 127.8520 0001149  79.5273 283.2962 15.35392987    16

Sigue STARLINK-3992 en tiempo real con AllMySat

Download on the App Store